Location: Aragüita
(10.0436°N, 67.8028°W)
Time: 07:35:09
(UTC+00:00)

Cosmos 1939 Rocket - Visible Passes

Search period start: 13 July 2024 00:00
Search period end: 23 July 2024 00:00
Orbit: 513 x 557 km, 97.5° (Epoch: 12 July)

Date Brightness Start Highest point End Pass type
(mag) Time Alt. Az. Time Alt. Az. Time Alt. Az.
13 Jul 3.8 09:24:04 10° NNW 09:27:12 26° WNW 09:29:05 17° WSW visible
14 Jul 3.3 09:14:58 10° N 09:18:23 35° WNW 09:20:07 23° SW visible
15 Jul 2.8 09:05:57 10° N 09:09:34 50° WNW 09:11:09 29° SW visible
16 Jul 2.5 08:57:02 10° N 09:00:44 72° WNW 09:02:10 35° SSW visible
17 Jul 2.7 08:48:09 10° NNE 08:51:53 80° ESE 08:53:10 39° S visible
18 Jul 3.2 08:39:22 10° NNE 08:43:01 55° E 08:44:10 38° SSE visible
19 Jul 3.9 08:30:39 10° NNE 08:34:09 39° E 08:35:10 32° SE visible
20 Jul 4.5 08:22:01 10° NE 08:25:16 28° E 08:26:09 25° SE visible
21 Jul 4.9 08:13:31 10° NE 08:16:22 21° E 08:17:06 19° ESE visible
21 Jul 4.8 09:49:16 10° WNW 09:50:31 11° WNW 09:51:47 10° W visible
22 Jul 5.4 08:05:13 10° ENE 08:07:27 15° E 08:08:04 15° ESE visible
22 Jul 4.4 09:39:22 10° NW 09:41:39 16° WNW 09:43:28 12° WSW visible
